Location: Cuzcurrita-R�o Tir�n
(42.5415°N, 2.9642°W)
Time: 02:47:14
(UTC+00:00)

Resurs 01 Rocket - Pass Details

Date: 27 February 2020
Orbit: 634 x 645 km, 98.0° (Epoch: 05 April)

Event Time Altitude Azimuth Distance (km) Brightness Sun altitude
Exits shadow 20:48:56 18° 346° (NNW) 1,578 3.9 -31.8°
Drops below altitude 10° 20:50:05 10° 347° (NNW) 2,041 4.5 -32.0°
Sets 20:52:17 0° 347° (NNW) 2,953 5.4 -32.4°
